DECAYED

CZ-6A DEB, 61427 (Decayed)

Orbit data source: Space-Track

CZ-6A DEB, 61427 was space debris in LEO originally from a launch on Tue, 06 Aug 2024 UTC launched from the Taiyaun Space Center, China (TSC). Debris objects in space refer to the collection of defunct objects orbiting the Earth. Examples of debris include non-operational satellites, rocket bodies, and fragments generated from explosions, collisions, or faulty payload assembly.

Not visible in the next 10 days
Identifier
61427, 2024-140YU
Orbit
Decayed
Country
Flag of CNCN / PRC
Related business
Manufacturer
SAST
Mission
Decayed spacecraft
Bus & Motor
Unknown
Mass
Unknown
Launch date (UTC)
2024-08-06 (2 years ago)
Launch vehicle
Unknown
Launch site
Taiyaun Space Center, China (TSC)
Object type
Payload
Rocket body
Debris
Shape & HBR
Unknown shape, 0.1 m
Radar Cross Section
Medium (>0.1 m² and <1 m²)

Expand to show TLE details & history
Last TLE update: 6 months ago

TLE from 6 months ago
0 CZ-6A DEB
1 61427U 24140YU  25363.61596460  .04869460  46106-1  17277-1 0  9997
2 61427  88.7676 273.5329 0011125  82.1302 278.1246 15.95121245 74052
Epoch: 2025-12-29T14:46Z
TLE epoch observation values (Epoch: 2025-12-29T14:46:59.341Z)
Latitude
-0.00006°
Longitude
-46.5254°
Altitude
290.235 km
Speed
7.734 km/s
True Right ascension
18h 14m 07s
True Declination
0° 00' 00"
Sunlit
Object was in daylight at epoch
Visualization orbit readout
Latitude
Unknown
Longitude
Unknown
Altitude
Unknown
Speed
Unknown
Apparent Right ascension
Unknown
Apparent Declination
Unknown
Sunlit
N/A
Visualization observer readout
Local Sidereal Time
07:22:59
Azimuth
Unknown
Elevation
Unknown
Doppler factor
Unknown
Orbital elements
Apogee altitude
292.095 km
Perigee altitude
277.271 km
Semi-major axis
6,662.82 km
Eccentricity
0.00111
Inclination
88.7676°
RAAN
273.5329°
Arg. of periapsis
82.1302°
True anomaly
277.99837°
Mean anomaly
278.1246°
Eccentric anomaly
278.06149°
Mean motion
3.99076 °/min
Orbital period
90.21 mins
BSTAR
0.017277
Loading maneuver chart data...
Computing Atmospheric mass density...
Loading historical data...
Loading historical data...
Loading historical data...
Loading historical data...
Loading historical data...
Loading historical data...
Loading historical data...

Documentation

Showing up to 5 results
|